Flag for Argentina Weather past 2 weeks in Buenos Aires, Argentina

Now
79 °F

Clear.


Feels Like: 82 °F
Forecast: 69 / 79 °F
Wind: 12 mph from Northwest

Location: Buenos Aires Airport

Current Time: Jan 28, 2015 at 3:41:31 AM

Latest Report: Jan 28, 2015 at 3:00 AM


Visibility: 10 mi

Pressure: 29.68 "Hg

Humidity: 79%

Dew point: 72 °F

Location of Buenos AiresLocation

Historic Weather in Buenos Aires — Graph

°F

Buenos Aires temperature yesterday

Maximum temperature yesterday: 91 °F (at 2:00 PM)
Minimum temperature yesterday: 70 °F (at 4:00 AM)
Average temperature yesterday: 84 °F

Past Weeks' High & Low Weather Summary

 TemperatureHumidityPressure
High91 °F (Jan 27, 2:00 PM)100% (Jan 27, 4:00 AM)30.21 "Hg (Jan 27, 4:00 AM)
Low61 °F (Jan 20, 6:00 AM)40% (Jan 25, 12:00 PM)29.65 "Hg (Jan 27, 5:00 PM)
Average76 °F72%29.93 "Hg
* Reported Jan 13 1:00 AM — Jan 28 1:00 AM, Buenos Aires, Weather by CustomWeather, © 2014

Note: Actual official high and low records may vary slightly from our data, if they occured in-between our weather recording intervals... More about our weather records

Advertising

Buenos Aires weather history for previous 24 hours

 ConditionsComfort  
Time TempWeatherWind HumidityBarometerVisibility
1:00 AM
Jan 28
82 °FClear.10 mph74%29.71 "Hg10 mi
12:00 AM82 °FClear.14 mph79%29.74 "Hg10 mi
11:00 PM
Jan 27
84 °FClear.13 mph74%29.74 "Hg10 mi
10:00 PM86 °FPassing clouds.10 mph66%29.71 "HgN/A
9:00 PM86 °FPassing clouds.8 mph62%29.68 "HgN/A
8:00 PM84 °FPassing clouds.7 mph79%29.68 "HgN/A
7:00 PM86 °FPartly sunny.6 mph79%29.68 "HgN/A
6:00 PM88 °FScattered clouds.6 mph75%29.68 "HgN/A
5:00 PM88 °FPartly sunny.5 mph70%29.65 "HgN/A
4:00 PM90 °FPartly sunny.7 mph67%29.68 "HgN/A
3:00 PM91 °FPartly sunny.6 mph59%29.68 "HgN/A
2:00 PM91 °FPartly sunny.8 mph56%29.74 "HgN/A
1:00 PM88 °FSunny.7 mph62%29.77 "Hg10 mi
12:00 PM88 °FSunny.7 mph62%29.77 "Hg10 mi
11:00 AM88 °FPartly sunny.9 mph55%29.77 "HgN/A
10:00 AM84 °FPartly sunny.10 mph66%29.77 "HgN/A
9:00 AM82 °FPartly sunny.8 mph70%29.77 "HgN/A
8:00 AM81 °FPartly sunny.7 mph74%29.77 "HgN/A
7:00 AM81 °FPartly sunny.9 mph84%29.74 "HgN/A
6:00 AM81 °FPartly sunny.8 mph74%29.71 "HgN/A
5:00 AM79 °FClear.7 mph79%29.71 "Hg10 mi
4:00 AM70 °FClear.12 mph100%29.71 "Hg10 mi
3:00 AM81 °FClear.16 mph70%29.71 "Hg10 mi
Weather by CustomWeather, © 2014

See weather overviewHow to use our weather pages